Terminal Aerodrome Forecast
Issued by NWS Pendleton, OR

Home | Current Version | Previous Version | Text Only | Print | Product List | Glossary On
Versions: 1 2 3 4 5 6 7 8 9 10 11 12 13 14 15 16 17 18 19 20 21 22 23 24 25 26 27 28 29 30 31 32 33 34
000
FTUS46 KPDT 302300
TAFPDT
TAF
KPDT 302334Z 3100/3124 30004KT P6SM OVC012
     FM310300 10003KT 4SM BR OVC006
     FM311600 31004KT 6SM BR OVC011
     FM312000 31005KT P6SM OVC015=

USA.gov is the U.S. government's official web portal to all federal, state and local government web resources and services.